[ hide orbit diagram ]
For accurate long-term ephemerides, please instead use our Horizons system.This orbit viewer was implemented using two-body methods, and hence should not be used for determining accurate long-term trajectories (over several years or decades) or planetary encounter circumstances.
Orbital Elements at Epoch 2459000.5 (2020-May-31.0) TDB
Reference: JPL 38 (heliocentric ecliptic J2000)
Element | Value | Uncertainty (1-sigma) | Units |
e | .2256585902520473 | 3.7018e-08 | |
a | 2.615860405684133 | 9.0436e-09 | au |
q | 2.025569034241303 | 9.7422e-08 | au |
i | 3.788824130091264 | 2.839e-06 | deg |
node | 97.0520581794313 | 6.3027e-05 | deg |
peri | 240.808791164586 | 6.3271e-05 | deg |
M | 241.1832164433351 | 7.3016e-06 | deg |
tp | 2459510.529814551459 (2021-Oct-23.02981455) | 3.2196e-05 | TDB |
period | 1545.326575440913 4.23 | 8.0138e-06 2.194e-08 | d yr |
n | .2329604665585233 | 1.2081e-09 | deg/d |
Q | 3.206151777126963 | 1.1084e-08 | au |
|
| | Orbit Determination Parameters
Additional Information
|
[ show covariance matrix ]
Physical Parameter Table
Parameter |
Symbol |
Value |
Units |
Sigma |
Reference |
Notes |
absolute magnitude |
H |
13.9 |
|
n/a |
MPO337316 |
|
diameter |
diameter |
8.898 |
km |
0.113 |
urn:nasa:pds:neowise_diameters_albedos::2.0[mainbelt] (http://adsabs.harvard.edu/abs/2011ApJ...741...68M) |
|
geometric albedo |
albedo |
0.060 |
|
0.008 |
urn:nasa:pds:neowise_diameters_albedos::2.0[mainbelt] (http://adsabs.harvard.edu/abs/2011ApJ...741...68M) |
|
|
7277 Klass | Discovered 1983 Sept. 4 by E. Bowell at the Anderson Mesa Station of Lowell Observatory. |
Named in honor of Philip J. Klass (b. 1919), for more than 30 years the senior avionics editor of Aviation Week and Space Technology magazine. Klass is best known to the public for his work in skeptically evaluating sensationalist claims about UFOs, making numerous TV appearances and writing five books on the subject. He has also written extensively on surveillance satellites. Name and citation provided by R. Sheaffer. |
NOTE: some special characters may not display properly (any characters within {} are an attempt to place the proper accent above a character) |
Reference: 19990202/MPCPages.arc | Last Updated: 2010-06-11 |
|
Alternate Designations
1983 RM2 = 1979 VS = 1982 HH3 = 1991 LP1 |
|
|